Flag for Italy Weather past 2 weeks in Cagliari, Italy

Now
81 °F

Sunny.


Feels Like: 83 °F
Forecast: 74 / 91 °F
Wind: 18 mph from South

Location: Cagliari / Elmas

Current Time: Jul 25, 2014 at 6:51:58 PM

Latest Report: Jul 25, 2014 at 6:20 PM


Visibility: 10 mi

Pressure: 29.83 "Hg

Humidity: 62%

Dew point: 66 °F

Location of CagliariLocation

Historic Weather in Cagliari — Graph

°F

Cagliari temperature yesterday

Maximum temperature yesterday: 91 °F (at 4:50 PM)
Minimum temperature yesterday: 66 °F (at 5:50 AM)
Average temperature yesterday: 78 °F

Past Weeks' High & Low Weather Summary

 TemperatureHumidityPressure
High91 °F (Jul 24, 4:50 PM)100% (Jul 16, 3:20 AM)30.07 "Hg (Jul 16, 3:20 AM)
Low64 °F (Jul 12, 6:20 AM)31% (Jul 15, 1:50 PM)29.80 "Hg (Jul 25, 4:50 PM)
Average77 °F65%29.96 "Hg
* Reported Jul 10 5:20 PM — Jul 25 5:20 PM, Cagliari, Weather by CustomWeather, © 2014

Note: Actual official high and low records may vary slightly from our data, if they occured in-between our weather recording intervals... More about our weather records

Advertising

Cagliari weather history for previous 24 hours

 ConditionsComfort  
Time TempWeatherWind HumidityBarometerVisibility
5:20 PM
Jul 25
82 °FPassing clouds.16 mph58%29.80 "HgN/A
4:50 PM79 °FScattered showers. Scattered clouds.16 mph65%29.80 "HgN/A
4:20 PM81 °FScattered showers. Scattered clouds.13 mph66%29.89 "HgN/A
3:50 PM82 °FPassing clouds.14 mph62%29.89 "HgN/A
3:20 PM84 °FPassing clouds.15 mph58%29.89 "HgN/A
2:50 PM84 °FPassing clouds.17 mph51%29.89 "HgN/A
2:20 PM84 °FPassing clouds.18 mph43%29.89 "HgN/A
1:50 PM84 °FPassing clouds.18 mph48%29.89 "HgN/A
1:20 PM82 °FScattered clouds.16 mph55%29.92 "HgN/A
12:50 PM82 °FPassing clouds.18 mph58%29.92 "HgN/A
12:20 PM82 °FPassing clouds.18 mph70%29.89 "HgN/A
11:50 AM86 °FPassing clouds.9 mph46%29.89 "HgN/A
11:20 AM82 °FPassing clouds.8 mph58%29.89 "HgN/A
10:50 AM82 °FPassing clouds.8 mph62%29.89 "HgN/A
10:20 AM81 °FPassing clouds.6 mph66%29.86 "HgN/A
9:50 AM79 °FSunny.6 mph79%29.89 "Hg10 mi
9:20 AM77 °FPassing clouds.7 mph83%29.86 "HgN/A
8:50 AM77 °FPassing clouds.8 mph83%29.86 "HgN/A
8:20 AM77 °FPassing clouds.10 mph83%29.89 "HgN/A
7:50 AM75 °FPassing clouds.9 mph89%29.89 "HgN/A
7:20 AM73 °FPassing clouds.7 mph94%29.86 "HgN/A
6:50 AM73 °FPassing clouds.5 mph94%29.86 "HgN/A
6:20 AM73 °FClear.2 mph94%29.86 "Hg10 mi
5:50 AM73 °FClear.6 mph94%29.83 "Hg10 mi
5:20 AM73 °FPassing clouds.7 mph94%29.86 "HgN/A
4:50 AM72 °FPassing clouds.5 mph83%29.86 "HgN/A
4:20 AM70 °FPassing clouds.5 mph73%29.86 "HgN/A
3:50 AM72 °FClear.1 mph73%29.89 "Hg10 mi
3:20 AM72 °FClear.2 mph73%29.89 "Hg10 mi
2:50 AM72 °FClear.3 mph73%29.89 "Hg10 mi
2:20 AM72 °FClear.7 mph73%29.89 "Hg10 mi
1:50 AM72 °FClear.7 mph78%29.89 "Hg10 mi
1:20 AM73 °FClear.6 mph74%29.89 "Hg10 mi
12:50 AM73 °FClear.7 mph74%29.89 "Hg10 mi
12:20 AM75 °FClear.7 mph69%29.89 "Hg10 mi
11:50 PM
Jul 24
75 °FClear.7 mph65%29.89 "Hg10 mi
11:20 PM75 °FClear.7 mph65%29.89 "Hg10 mi
10:50 PM77 °FPassing clouds.9 mph57%29.89 "HgN/A
10:20 PM79 °FClear.8 mph51%29.89 "Hg10 mi
9:50 PM79 °FClear.7 mph51%29.89 "Hg10 mi
9:20 PM82 °FSunny.8 mph42%29.86 "Hg10 mi
8:50 PM81 °FSunny.2 mph62%29.86 "Hg10 mi
8:20 PM81 °FSunny.7 mph62%29.86 "Hg10 mi
7:50 PM82 °FPassing clouds.3 mph62%29.86 "HgN/A
7:20 PM81 °FPassing clouds.7 mph66%29.86 "HgN/A
6:50 PM82 °FSunny.9 mph62%29.83 "Hg10 mi
6:20 PM82 °FSunny.10 mph62%29.83 "Hg10 mi
Weather by CustomWeather, © 2014

See weather overviewHow to use our weather pages